| time (UTC) | temp F | wind direction | speed MPH | gust MPH | rain 1hr in | rain 24hr in | rain mn in | humidity % | barometer mb |
| 20260904004948 | 70 | 302 | 2.0 | 3.0 | 0.00 | 0.00 | 0.00 | 97 | 982.0 |
| 20260904004448 | 70 | 285 | 2.0 | 3.0 | 0.00 | 0.00 | 0.00 | 97 | 982.0 |
| 20260904003426 | 70 | 282 | 1.0 | 1.0 | 0.00 | 0.00 | 0.00 | 97 | 981.8 |
| 20260904002926 | 70 | 264 | 3.0 | 4.0 | 0.00 | 0.00 | 0.00 | 96 | 981.8 |
| 20260904002426 | 71 | 291 | 3.0 | 4.0 | 0.00 | 0.00 | 0.00 | 96 | 981.9 |
| 20260904001926 | 71 | 289 | 3.0 | 4.0 | 0.00 | 0.00 | 0.00 | 97 | 981.8 |
| 20260904001426 | 71 | 279 | 3.0 | 3.0 | 0.00 | 0.00 | 0.00 | 97 | 981.7 |
| 20260904000925 | 71 | 252 | 2.0 | 3.0 | 0.00 | 0.00 | 0.00 | 97 | 981.6 |
| 20260904000425 | 71 | 325 | 2.0 | 4.0 | 0.00 | 0.00 | 0.00 | 97 | 981.6 |
| 20260903235925 | 71 | 0 | 0.0 | 0.0 | 0.00 | 0.00 | 0.00 | 96 | 981.4 |
| 20260903235425 | 71 | 0 | 0.0 | 0.0 | 0.00 | 0.00 | 0.00 | 96 | 981.3 |
| 20260903234924 | 71 | 0 | 0.0 | 0.0 | 0.00 | 0.00 | 0.00 | 96 | 981.4 |
| 20260903234424 | 71 | 299 | 1.0 | 2.0 | 0.00 | 0.00 | 0.00 | 96 | 981.4 |
| 20260903233923 | 71 | 336 | 2.0 | 3.0 | 0.00 | 0.00 | 0.00 | 96 | 981.6 |
| 20260903233423 | 71 | 345 | 3.0 | 6.0 | 0.00 | 0.00 | 0.00 | 96 | 981.8 |
| 20260903232923 | 71 | 355 | 1.0 | 3.0 | 0.00 | 0.00 | 0.00 | 96 | 981.7 |
| 20260903232422 | 71 | 326 | 2.0 | 5.0 | 0.00 | 0.00 | 0.00 | 96 | 981.4 |
| 20260903231922 | 71 | 269 | 2.0 | 4.0 | 0.00 | 0.00 | 0.00 | 96 | 981.0 |
| 20260903231422 | 71 | 272 | 1.0 | 2.0 | 0.00 | 0.00 | 0.00 | 96 | 980.8 |
| 20260903230400 | 71 | 174 | 2.0 | 3.0 | 0.00 | 0.00 | 0.00 | 96 | 980.6 |
| 20260903225900 | 71 | 0 | 0.0 | 0.0 | 0.00 | 0.00 | 0.00 | 96 | 980.6 |
| 20260903224317 | 71 | 323 | 2.0 | 3.0 | 0.00 | 0.00 | 0.00 | 96 | 981.0 |
| 20260903223817 | 71 | 340 | 3.0 | 4.0 | 0.00 | 0.00 | 0.00 | 96 | 981.1 |
| 20260903223317 | 71 | 332 | 1.0 | 3.0 | 0.00 | 0.00 | 0.00 | 95 | 980.7 |
| 20260903222816 | 71 | 278 | 2.0 | 4.0 | 0.00 | 0.00 | 0.00 | 95 | 980.6 |
| 20260903222316 | 71 | 272 | 3.0 | 6.0 | 0.00 | 0.00 | 0.00 | 95 | 980.5 |
| 20260903221816 | 71 | 240 | 2.0 | 4.0 | 0.00 | 0.00 | 0.00 | 95 | 980.7 |
| 20260903221315 | 72 | 250 | 1.0 | 4.0 | 0.00 | 0.00 | 0.00 | 95 | 980.6 |
| 20260903220815 | 72 | 245 | 2.0 | 4.0 | 0.00 | 0.00 | 0.00 | 95 | 980.8 |
| 20260903220315 | 72 | 261 | 2.0 | 4.0 | 0.00 | 0.00 | 0.00 | 95 | 981.0 |
| 20260903215814 | 72 | 314 | 2.0 | 4.0 | 0.00 | 0.00 | 0.00 | 95 | 981.2 |
| 20260903214753 | 72 | 306 | 4.0 | 7.0 | 0.00 | 0.00 | 0.00 | 95 | 981.2 |
| 20260903214253 | 72 | 17 | 1.0 | 1.0 | 0.00 | 0.00 | 0.00 | 95 | 981.2 |
| 20260903213753 | 73 | 13 | 2.0 | 5.0 | 0.00 | 0.00 | 0.00 | 95 | 981.4 |
| 20260903212731 | 74 | 340 | 3.0 | 5.0 | 0.00 | 0.00 | 0.00 | 95 | 981.9 |
| 20260903212231 | 74 | 340 | 2.0 | 4.0 | 0.00 | 0.00 | 0.00 | 95 | 982.1 |
| 20260903211731 | 74 | 347 | 3.0 | 7.0 | 0.00 | 0.00 | 0.00 | 95 | 982.0 |
| 20260903210709 | 75 | 321 | 5.0 | 7.0 | 0.00 | 0.00 | 0.00 | 95 | 982.2 |
| 20260903205647 | 75 | 293 | 5.0 | 8.0 | 0.00 | 0.00 | 0.00 | 95 | 982.4 |
| 20260903205147 | 76 | 322 | 6.0 | 8.0 | 0.00 | 0.00 | 0.00 | 95 | 982.2 |
| 20260903204647 | 76 | 337 | 4.0 | 8.0 | 0.00 | 0.00 | 0.00 | 94 | 981.8 |
| 20260903204147 | 77 | 323 | 2.0 | 4.0 | 0.00 | 0.00 | 0.00 | 93 | 981.8 |
| 20260903203646 | 77 | 305 | 3.0 | 4.0 | 0.00 | 0.00 | 0.00 | 92 | 981.7 |
| 20260903203146 | 78 | 306 | 3.0 | 4.0 | 0.00 | 0.00 | 0.00 | 90 | 981.6 |
| 20260903202646 | 78 | 328 | 2.0 | 4.0 | 0.00 | 0.00 | 0.00 | 89 | 981.3 |
| 20260903201625 | 78 | 263 | 3.0 | 5.0 | 0.00 | 0.00 | 0.00 | 88 | 981.1 |
| 20260903201124 | 78 | 233 | 1.0 | 2.0 | 0.00 | 0.00 | 0.00 | 88 | 981.0 |
| 20260903200624 | 78 | 0 | 0.0 | 0.0 | 0.00 | 0.00 | 0.00 | 87 | 980.9 |
| 20260903200124 | 78 | 256 | 1.0 | 2.0 | 0.00 | 0.00 | 0.00 | 87 | 980.8 |
| 20260903195624 | 78 | 320 | 1.0 | 2.0 | 0.00 | 0.00 | 0.00 | 87 | 980.8 |
| 20260903195123 | 78 | 308 | 1.0 | 2.0 | 0.00 | 0.00 | 0.00 | 87 | 980.8 |
| 20260903194623 | 79 | 321 | 2.0 | 3.0 | 0.00 | 0.00 | 0.00 | 87 | 980.7 |
| 20260903194123 | 79 | 58 | 1.0 | 3.0 | 0.00 | 0.00 | 0.00 | 87 | 980.7 |
| 20260903193101 | 79 | 324 | 1.0 | 4.0 | 0.00 | 0.00 | 0.00 | 86 | 980.7 |
| 20260903192601 | 79 | 336 | 2.0 | 4.0 | 0.00 | 0.00 | 0.00 | 85 | 980.8 |
| 20260903192101 | 79 | 250 | 1.0 | 3.0 | 0.00 | 0.00 | 0.00 | 86 | 980.8 |
| 20260903191600 | 79 | 320 | 2.0 | 3.0 | 0.00 | 0.00 | 0.00 | 85 | 980.7 |
| 20260903191100 | 79 | 329 | 4.0 | 6.0 | 0.00 | 0.00 | 0.00 | 85 | 980.8 |
| 20260903190600 | 80 | 331 | 3.0 | 5.0 | 0.00 | 0.00 | 0.00 | 84 | 980.7 |
| 20260903190100 | 80 | 72 | 2.0 | 4.0 | 0.00 | 0.00 | 0.00 | 84 | 980.7 |
| 20260903185600 | 80 | 350 | 5.0 | 9.0 | 0.00 | 0.00 | 0.00 | 82 | 980.9 |
| 20260903185059 | 80 | 324 | 3.0 | 4.0 | 0.00 | 0.00 | 0.00 | 82 | 981.0 |
| 20260903184559 | 80 | 350 | 4.0 | 8.0 | 0.00 | 0.00 | 0.00 | 82 | 980.9 |
| 20260903183538 | 80 | 295 | 4.0 | 5.0 | 0.00 | 0.00 | 0.00 | 81 | 981.2 |
| 20260903182516 | 81 | 315 | 3.0 | 5.0 | 0.00 | 0.00 | 0.00 | 80 | 981.6 |
| 20260903182016 | 81 | 316 | 5.0 | 7.0 | 0.00 | 0.00 | 0.00 | 80 | 981.7 |
| 20260903181516 | 81 | 273 | 5.0 | 8.0 | 0.00 | 0.00 | 0.00 | 79 | 981.6 |
| 20260903181016 | 81 | 293 | 4.0 | 6.0 | 0.00 | 0.00 | 0.00 | 79 | 981.6 |
| 20260903180515 | 81 | 290 | 5.0 | 8.0 | 0.00 | 0.00 | 0.00 | 78 | 981.6 |
| 20260903180015 | 81 | 275 | 5.0 | 7.0 | 0.00 | 0.00 | 0.00 | 79 | 981.7 |
| 20260903175515 | 81 | 312 | 3.0 | 5.0 | 0.00 | 0.00 | 0.00 | 78 | 981.7 |
| 20260903175015 | 81 | 305 | 6.0 | 9.0 | 0.00 | 0.00 | 0.00 | 78 | 981.7 |
| 20260903174515 | 81 | 306 | 5.0 | 9.0 | 0.00 | 0.00 | 0.00 | 78 | 981.7 |
| 20260903173453 | 80 | 321 | 5.0 | 8.0 | 0.00 | 0.00 | 0.00 | 78 | 981.9 |
| 20260903172432 | 81 | 302 | 7.0 | 10.0 | 0.00 | 0.00 | 0.00 | 78 | 981.9 |
| 20260903171932 | 80 | 308 | 5.0 | 7.0 | 0.00 | 0.00 | 0.00 | 78 | 981.9 |
| 20260903171431 | 80 | 296 | 5.0 | 6.0 | 0.00 | 0.00 | 0.00 | 77 | 981.9 |
| 20260903170930 | 80 | 290 | 6.0 | 8.0 | 0.00 | 0.00 | 0.00 | 77 | 981.8 |
| 20260903170430 | 80 | 284 | 4.0 | 5.0 | 0.00 | 0.00 | 0.00 | 77 | 981.6 |
| 20260903165930 | 80 | 329 | 4.0 | 6.0 | 0.00 | 0.00 | 0.00 | 77 | 981.8 |
| 20260903165429 | 80 | 308 | 7.0 | 12.0 | 0.00 | 0.00 | 0.00 | 78 | 981.8 |
| 20260903164928 | 80 | 262 | 4.0 | 6.0 | 0.00 | 0.00 | 0.00 | 80 | 982.0 |
| 20260903164428 | 79 | 275 | 4.0 | 6.0 | 0.00 | 0.00 | 0.00 | 81 | 982.2 |
| 20260903163928 | 79 | 295 | 4.0 | 6.0 | 0.00 | 0.00 | 0.00 | 82 | 982.1 |
| 20260903162345 | 79 | 294 | 5.0 | 9.0 | 0.00 | 0.00 | 0.00 | 78 | 982.1 |
| 20260903161845 | 79 | 282 | 3.0 | 4.0 | 0.00 | 0.00 | 0.00 | 79 | 982.2 |
| 20260903161344 | 79 | 267 | 5.0 | 6.0 | 0.00 | 0.00 | 0.00 | 80 | 982.2 |
| 20260903160844 | 80 | 275 | 5.0 | 8.0 | 0.00 | 0.00 | 0.00 | 79 | 982.2 |
| 20260903160343 | 80 | 287 | 5.0 | 6.0 | 0.00 | 0.00 | 0.00 | 78 | 982.2 |
| 20260903155843 | 80 | 271 | 2.0 | 3.0 | 0.00 | 0.00 | 0.00 | 77 | 982.0 |
| 20260903155343 | 80 | 70 | 3.0 | 5.0 | 0.00 | 0.00 | 0.00 | 78 | 981.9 |
| 20260903154322 | 80 | 348 | 2.0 | 4.0 | 0.00 | 0.00 | 0.00 | 79 | 982.0 |
| 20260903153300 | 80 | 206 | 1.0 | 2.0 | 0.00 | 0.00 | 0.00 | 79 | 982.0 |
| 20260903151717 | 78 | 192 | 3.0 | 7.0 | 0.00 | 0.00 | 0.00 | 85 | 982.0 |
| 20260903151217 | 78 | 264 | 1.0 | 2.0 | 0.00 | 0.00 | 0.00 | 84 | 982.1 |
| 20260903150717 | 77 | 165 | 3.0 | 6.0 | 0.00 | 0.00 | 0.00 | 86 | 982.2 |
| 20260903145655 | 76 | 100 | 1.0 | 2.0 | 0.00 | 0.00 | 0.00 | 88 | 982.2 |
| 20260903145155 | 75 | 247 | 1.0 | 3.0 | 0.00 | 0.00 | 0.00 | 88 | 982.3 |
| 20260903144654 | 75 | 241 | 2.0 | 3.0 | 0.00 | 0.00 | 0.00 | 90 | 982.3 |
| 20260903143633 | 75 | 163 | 1.0 | 2.0 | 0.00 | 0.00 | 0.00 | 92 | 982.2 |
| 20260903143132 | 74 | 236 | 1.0 | 2.0 | 0.00 | 0.00 | 0.00 | 93 | 982.2 |
| 20260903142110 | 72 | 284 | 1.0 | 1.0 | 0.00 | 0.00 | 0.00 | 97 | 982.2 |
| 20260903141610 | 71 | 163 | 1.0 | 3.0 | 0.00 | 0.00 | 0.00 | 97 | 982.2 |
| 20260903141110 | 70 | 221 | 1.0 | 2.0 | 0.00 | 0.00 | 0.00 | 97 | 982.3 |
| 20260903140610 | 71 | 215 | 1.0 | 2.0 | 0.00 | 0.00 | 0.00 | 97 | 982.2 |
| 20260903135547 | 69 | 245 | 2.0 | 3.0 | 0.00 | 0.00 | 0.00 | 98 | 982.3 |
| 20260903135046 | 70 | 246 | 2.0 | 3.0 | 0.00 | 0.00 | 0.00 | 98 | 982.2 |
| 20260903134546 | 70 | 169 | 2.0 | 4.0 | 0.00 | 0.00 | 0.00 | 99 | 982.2 |
| 20260903134046 | 69 | 280 | 3.0 | 4.0 | 0.00 | 0.00 | 0.00 | 99 | 982.3 |
| 20260903133024 | 69 | 294 | 4.0 | 6.0 | 0.00 | 0.00 | 0.00 | 99 | 982.4 |
| 20260903132524 | 69 | 309 | 7.0 | 11.0 | 0.00 | 0.00 | 0.00 | 99 | 982.5 |
| 20260903132024 | 69 | 294 | 2.0 | 3.0 | 0.00 | 0.00 | 0.00 | 99 | 982.5 |
| 20260903131524 | 69 | 309 | 4.0 | 7.0 | 0.00 | 0.00 | 0.00 | 99 | 982.5 |
| 20260903131023 | 69 | 261 | 1.0 | 2.0 | 0.00 | 0.00 | 0.00 | 99 | 982.6 |
| 20260903130523 | 68 | 328 | 2.0 | 3.0 | 0.00 | 0.00 | 0.00 | 99 | 982.6 |
| 20260903130023 | 68 | 307 | 3.0 | 4.0 | 0.00 | 0.00 | 0.00 | 99 | 982.6 |
| 20260903125523 | 68 | 327 | 2.0 | 3.0 | 0.00 | 0.00 | 0.00 | 99 | 982.7 |
| 20260903125022 | 68 | 7 | 2.0 | 2.0 | 0.00 | 0.00 | 0.00 | 99 | 982.6 |
| 20260903124522 | 68 | 323 | 3.0 | 3.0 | 0.00 | 0.00 | 0.00 | 99 | 982.6 |
| 20260903124022 | 68 | 340 | 2.0 | 2.0 | 0.00 | 0.00 | 0.00 | 99 | 982.6 |
| 20260903123522 | 68 | 317 | 2.0 | 3.0 | 0.00 | 0.00 | 0.00 | 99 | 982.7 |
| 20260903123021 | 68 | 347 | 3.0 | 3.0 | 0.00 | 0.00 | 0.00 | 99 | 982.6 |
| 20260903122520 | 68 | 47 | 2.0 | 2.0 | 0.00 | 0.00 | 0.00 | 99 | 982.5 |
| 20260903121458 | 68 | 334 | 2.0 | 3.0 | 0.00 | 0.00 | 0.00 | 99 | 982.6 |
| 20260903120958 | 68 | 136 | 3.0 | 5.0 | 0.00 | 0.00 | 0.00 | 99 | 982.5 |
| 20260903120458 | 68 | 24 | 2.0 | 2.0 | 0.00 | 0.00 | 0.00 | 99 | 982.5 |
| 20260903115958 | 68 | 346 | 2.0 | 2.0 | 0.00 | 0.00 | 0.00 | 99 | 982.5 |
| 20260903115457 | 68 | 317 | 2.0 | 3.0 | 0.00 | 0.00 | 0.00 | 99 | 982.4 |
| 20260903114957 | 68 | 260 | 2.0 | 3.0 | 0.00 | 0.00 | 0.00 | 99 | 982.4 |
| 20260903114457 | 68 | 348 | 2.0 | 2.0 | 0.00 | 0.00 | 0.00 | 99 | 982.4 |
| 20260903113957 | 68 | 353 | 3.0 | 3.0 | 0.00 | 0.00 | 0.00 | 99 | 982.3 |
| 20260903112936 | 68 | 337 | 2.0 | 2.0 | 0.00 | 0.00 | 0.00 | 99 | 982.3 |
| 20260903112435 | 68 | 336 | 2.0 | 2.0 | 0.00 | 0.00 | 0.00 | 99 | 982.2 |
| 20260903111935 | 68 | 337 | 2.0 | 2.0 | 0.00 | 0.00 | 0.00 | 99 | 982.2 |
| 20260903110914 | 68 | 340 | 2.0 | 2.0 | 0.00 | 0.00 | 0.00 | 99 | 982.3 |
| 20260903110413 | 67 | 337 | 2.0 | 2.0 | 0.00 | 0.00 | 0.00 | 99 | 982.1 |
| 20260903105913 | 67 | 354 | 3.0 | 3.0 | 0.00 | 0.00 | 0.00 | 99 | 982.0 |
| 20260903105413 | 67 | 345 | 2.0 | 2.0 | 0.00 | 0.00 | 0.00 | 99 | 982.0 |
| 20260903104912 | 67 | 352 | 2.0 | 3.0 | 0.00 | 0.00 | 0.00 | 98 | 982.0 |
| 20260903104411 | 67 | 309 | 2.0 | 3.0 | 0.00 | 0.00 | 0.00 | 98 | 982.0 |
| 20260903103350 | 67 | 333 | 2.0 | 2.0 | 0.00 | 0.00 | 0.00 | 98 | 982.0 |
| 20260903102850 | 67 | 342 | 2.0 | 3.0 | 0.00 | 0.00 | 0.00 | 98 | 982.0 |
| 20260903102350 | 67 | 339 | 2.0 | 2.0 | 0.00 | 0.00 | 0.00 | 98 | 982.0 |
| 20260903101328 | 67 | 352 | 2.0 | 3.0 | 0.00 | 0.00 | 0.00 | 98 | 982.0 |
| 20260903100828 | 67 | 339 | 2.0 | 2.0 | 0.00 | 0.00 | 0.00 | 98 | 982.0 |
| 20260903100328 | 67 | 342 | 2.0 | 2.0 | 0.00 | 0.00 | 0.00 | 98 | 981.9 |
| 20260903095828 | 67 | 335 | 2.0 | 2.0 | 0.00 | 0.00 | 0.00 | 98 | 981.8 |
| 20260903095327 | 67 | 151 | 2.0 | 4.0 | 0.00 | 0.00 | 0.00 | 98 | 981.8 |
| 20260903094827 | 67 | 332 | 1.0 | 3.0 | 0.00 | 0.00 | 0.00 | 98 | 981.7 |
| 20260903094327 | 67 | 343 | 2.0 | 2.0 | 0.00 | 0.00 | 0.00 | 98 | 981.7 |
| 20260903093827 | 67 | 331 | 1.0 | 1.0 | 0.00 | 0.00 | 0.00 | 98 | 981.5 |
| 20260903093327 | 67 | 340 | 2.0 | 3.0 | 0.00 | 0.00 | 0.00 | 98 | 981.5 |
| 20260903092826 | 67 | 101 | 2.0 | 3.0 | 0.00 | 0.00 | 0.00 | 98 | 981.4 |
| 20260903092326 | 67 | 30 | 2.0 | 3.0 | 0.00 | 0.00 | 0.00 | 98 | 981.3 |
| 20260903091826 | 66 | 60 | 2.0 | 3.0 | 0.00 | 0.00 | 0.00 | 98 | 981.3 |
| 20260903090804 | 66 | 336 | 1.0 | 2.0 | 0.00 | 0.00 | 0.00 | 98 | 981.2 |
| 20260903090304 | 67 | 135 | 2.0 | 3.0 | 0.00 | 0.00 | 0.00 | 98 | 981.2 |
| 20260903085804 | 67 | 336 | 1.0 | 2.0 | 0.00 | 0.00 | 0.00 | 98 | 981.2 |
| 20260903085306 | 67 | 333 | 1.0 | 2.0 | 0.00 | 0.00 | 0.00 | 98 | 981.2 |
| 20260903084803 | 67 | 337 | 1.0 | 2.0 | 0.00 | 0.00 | 0.00 | 98 | 981.2 |
| 20260903084303 | 67 | 344 | 2.0 | 2.0 | 0.00 | 0.00 | 0.00 | 98 | 981.2 |
| 20260903083803 | 67 | 1 | 2.0 | 2.0 | 0.00 | 0.00 | 0.00 | 98 | 981.1 |
| 20260903083302 | 67 | 344 | 2.0 | 2.0 | 0.00 | 0.00 | 0.00 | 98 | 981.0 |
| 20260903082802 | 67 | 14 | 2.0 | 2.0 | 0.00 | 0.00 | 0.00 | 98 | 981.0 |
| 20260903082305 | 67 | 347 | 2.0 | 2.0 | 0.00 | 0.00 | 0.00 | 98 | 980.9 |
| 20260903081240 | 67 | 337 | 1.0 | 1.0 | 0.00 | 0.00 | 0.00 | 98 | 981.1 |
| 20260903080740 | 67 | 339 | 2.0 | 2.0 | 0.00 | 0.00 | 0.00 | 98 | 981.2 |
| 20260903080240 | 67 | 341 | 2.0 | 2.0 | 0.00 | 0.00 | 0.00 | 98 | 981.2 |
| 20260903075740 | 67 | 347 | 2.0 | 2.0 | 0.00 | 0.00 | 0.00 | 98 | 981.1 |
| 20260903075239 | 68 | 155 | 3.0 | 4.0 | 0.00 | 0.00 | 0.00 | 98 | 981.1 |
| 20260903074739 | 68 | 44 | 2.0 | 2.0 | 0.00 | 0.00 | 0.00 | 98 | 981.1 |
| 20260903073718 | 68 | 338 | 1.0 | 1.0 | 0.00 | 0.00 | 0.00 | 98 | 981.1 |
| 20260903072135 | 68 | 330 | 1.0 | 1.0 | 0.00 | 0.00 | 0.00 | 98 | 980.8 |
| 20260903071635 | 68 | 340 | 2.0 | 2.0 | 0.00 | 0.00 | 0.00 | 98 | 980.7 |
| 20260903071135 | 68 | 8 | 2.0 | 3.0 | 0.00 | 0.00 | 0.00 | 98 | 980.7 |
| 20260903070634 | 68 | 128 | 2.0 | 2.0 | 0.00 | 0.00 | 0.00 | 98 | 980.8 |
| 20260903070134 | 68 | 153 | 2.0 | 3.0 | 0.00 | 0.00 | 0.00 | 98 | 980.8 |
| 20260903065634 | 68 | 344 | 2.0 | 2.0 | 0.00 | 0.00 | 0.00 | 98 | 980.9 |
| 20260903065134 | 68 | 337 | 1.0 | 2.0 | 0.00 | 0.00 | 0.00 | 98 | 981.0 |
| 20260903063030 | 68 | 142 | 2.0 | 3.0 | 0.00 | 0.00 | 0.00 | 98 | 981.2 |
| 20260903062530 | 69 | 143 | 3.0 | 3.0 | 0.00 | 0.00 | 0.00 | 98 | 981.3 |
| 20260903061508 | 69 | 342 | 2.0 | 2.0 | 0.00 | 0.00 | 0.00 | 98 | 981.5 |
| 20260903061008 | 69 | 331 | 1.0 | 1.0 | 0.00 | 0.00 | 0.00 | 98 | 981.5 |
| 20260903060508 | 69 | 137 | 3.0 | 3.0 | 0.00 | 0.00 | 0.00 | 98 | 981.4 |
| 20260903060008 | 69 | 341 | 2.0 | 2.0 | 0.00 | 0.00 | 0.00 | 98 | 981.5 |
| 20260903055507 | 69 | 332 | 1.0 | 2.0 | 0.00 | 0.00 | 0.00 | 98 | 981.5 |
| 20260903055007 | 69 | 339 | 2.0 | 3.0 | 0.00 | 0.00 | 0.00 | 98 | 981.7 |
| 20260903053425 | 69 | 333 | 2.0 | 2.0 | 0.00 | 0.00 | 0.00 | 98 | 981.6 |
| 20260903052924 | 69 | 133 | 2.0 | 3.0 | 0.00 | 0.00 | 0.00 | 97 | 981.5 |
| 20260903052424 | 69 | 147 | 3.0 | 3.0 | 0.00 | 0.00 | 0.00 | 98 | 981.5 |
| 20260903051924 | 69 | 134 | 2.0 | 3.0 | 0.00 | 0.00 | 0.00 | 97 | 981.4 |
| 20260903051424 | 69 | 180 | 2.0 | 3.0 | 0.00 | 0.00 | 0.00 | 97 | 981.5 |
| 20260903050924 | 69 | 101 | 1.0 | 2.0 | 0.00 | 0.00 | 0.00 | 97 | 981.4 |
| 20260903050423 | 69 | 345 | 1.0 | 3.0 | 0.00 | 0.00 | 0.00 | 97 | 981.4 |
| 20260903045402 | 69 | 134 | 2.0 | 4.0 | 0.00 | 0.00 | 0.00 | 97 | 981.3 |
| 20260903044902 | 69 | 124 | 2.0 | 3.0 | 0.00 | 0.00 | 0.00 | 97 | 981.5 |
| 20260903044402 | 69 | 0 | 0.0 | 0.0 | 0.00 | 0.00 | 0.00 | 97 | 981.4 |
| 20260903043340 | 69 | 133 | 1.0 | 3.0 | 0.00 | 0.00 | 0.00 | 97 | 980.9 |
| 20260903042840 | 69 | 333 | 1.0 | 1.0 | 0.00 | 0.00 | 0.00 | 97 | 980.8 |
| 20260903041818 | 69 | 328 | 1.0 | 1.0 | 0.00 | 0.00 | 0.00 | 97 | 980.6 |
| 20260903041317 | 69 | 341 | 1.0 | 2.0 | 0.00 | 0.00 | 0.00 | 97 | 980.4 |
| 20260903040256 | 69 | 83 | 2.0 | 2.0 | 0.00 | 0.00 | 0.00 | 97 | 980.6 |
| 20260903035756 | 69 | 127 | 2.0 | 4.0 | 0.00 | 0.00 | 0.00 | 97 | 980.7 |
| 20260903035255 | 69 | 313 | 2.0 | 3.0 | 0.00 | 0.00 | 0.00 | 97 | 980.3 |
| 20260903034755 | 69 | 95 | 2.0 | 2.0 | 0.00 | 0.00 | 0.00 | 97 | 980.2 |
| 20260903034255 | 69 | 291 | 1.0 | 2.0 | 0.00 | 0.00 | 0.00 | 97 | 980.2 |
| 20260903033755 | 69 | 358 | 2.0 | 2.0 | 0.00 | 0.00 | 0.00 | 97 | 980.0 |
| 20260903033254 | 69 | 340 | 2.0 | 3.0 | 0.00 | 0.00 | 0.00 | 97 | 980.0 |
| 20260903032754 | 69 | 101 | 1.0 | 2.0 | 0.00 | 0.00 | 0.00 | 97 | 980.0 |
| 20260903032254 | 69 | 331 | 1.0 | 1.0 | 0.00 | 0.00 | 0.00 | 97 | 980.1 |
| 20260903031754 | 69 | 339 | 1.0 | 1.0 | 0.00 | 0.00 | 0.00 | 97 | 980.2 |
| 20260903031254 | 69 | 140 | 3.0 | 4.0 | 0.00 | 0.00 | 0.00 | 96 | 980.3 |
| 20260903030753 | 69 | 124 | 1.0 | 2.0 | 0.00 | 0.00 | 0.00 | 96 | 980.7 |
| 20260903030253 | 69 | 319 | 1.0 | 2.0 | 0.00 | 0.00 | 0.00 | 96 | 980.6 |
| 20260903025753 | 69 | 326 | 1.0 | 1.0 | 0.00 | 0.00 | 0.00 | 96 | 980.7 |
| 20260903025253 | 69 | 324 | 1.0 | 3.0 | 0.00 | 0.00 | 0.00 | 96 | 980.6 |
| 20260903024752 | 69 | 329 | 1.0 | 1.0 | 0.00 | 0.00 | 0.00 | 96 | 980.6 |
| 20260903024252 | 69 | 318 | 2.0 | 2.0 | 0.00 | 0.00 | 0.00 | 95 | 980.6 |
| 20260903023752 | 69 | 146 | 3.0 | 5.0 | 0.00 | 0.00 | 0.00 | 95 | 981.1 |
| 20260903023252 | 69 | 301 | 2.0 | 4.0 | 0.00 | 0.00 | 0.00 | 95 | 981.1 |
| 20260903022230 | 69 | 277 | 2.0 | 3.0 | 0.00 | 0.00 | 0.00 | 95 | 980.8 |
| 20260903021730 | 69 | 335 | 1.0 | 2.0 | 0.00 | 0.00 | 0.00 | 95 | 981.1 |
| 20260903021230 | 69 | 81 | 3.0 | 6.0 | 0.00 | 0.00 | 0.00 | 96 | 981.2 |
| 20260903020729 | 69 | 55 | 2.0 | 3.0 | 0.00 | 0.00 | 0.00 | 96 | 982.0 |
| 20260903020228 | 69 | 14 | 3.0 | 5.0 | 0.00 | 0.00 | 0.00 | 97 | 982.2 |
| 20260903015728 | 69 | 340 | 3.0 | 4.0 | 0.00 | 0.00 | 0.00 | 97 | 981.9 |
| 20260903014706 | 69 | 0 | 2.0 | 3.0 | 0.00 | 0.00 | 0.00 | 97 | 981.2 |
| 20260903014206 | 69 | 147 | 5.0 | 6.0 | 0.00 | 0.00 | 0.00 | 97 | 981.2 |
| 20260903013145 | 69 | 61 | 2.0 | 3.0 | 0.00 | 0.00 | 0.00 | 97 | 981.4 |
| 20260903012645 | 69 | 326 | 2.0 | 3.0 | 0.00 | 0.00 | 0.00 | 97 | 981.4 |
| 20260903012144 | 69 | 334 | 2.0 | 2.0 | 0.00 | 0.00 | 0.00 | 97 | 981.6 |
| 20260903011644 | 69 | 335 | 2.0 | 2.0 | 0.00 | 0.00 | 0.00 | 97 | 981.7 |
| 20260903010101 | 69 | 135 | 3.0 | 5.0 | 0.00 | 0.00 | 0.00 | 96 | 981.0 |
| 20260903005601 | 69 | 139 | 4.0 | 6.0 | 0.00 | 0.00 | 0.00 | 96 | 981.3 |